Location: Polska
(52.0000°N, 19.0000°E)
Time: 20:16:59
(UTC+02:00)

ISS - Visible Passes

Search period start: 22 September 2019 00:00
Search period end: 02 October 2019 00:00
Orbit: 411 x 421 km, 51.6° (Epoch: 23 September)

Date Brightness Start Highest point End Pass type
(mag) Time Alt. Az. Time Alt. Az. Time Alt. Az.
22 Sep -2.6 19:49:44 10° SSW 19:52:35 26° SSE 19:53:59 19° ESE visible
22 Sep -1.5 21:25:42 10° WSW 21:26:54 20° WSW 21:26:54 20° WSW visible
23 Sep -3.7 20:37:19 10° WSW 20:40:32 60° S 20:40:32 60° S visible
24 Sep -3.4 19:48:59 10° SW 19:52:11 46° SSE 19:54:03 21° E visible
24 Sep -1.6 21:25:29 10° W 21:26:57 24° W 21:26:57 24° W visible
25 Sep -3.9 20:37:01 10° W 20:40:21 81° S 20:40:23 81° SSE visible
26 Sep -3.8 19:48:33 10° WSW 19:51:52 71° SSE 19:53:46 23° E visible
26 Sep -1.5 21:25:15 10° W 21:26:39 23° W 21:26:39 23° W visible
27 Sep -3.9 20:36:46 10° W 20:39:59 83° WSW 20:39:59 83° WSW visible
28 Sep -3.9 19:48:14 10° W 19:51:36 86° SSE 19:53:18 26° E visible
28 Sep -1.3 21:24:58 10° W 21:26:11 20° W 21:26:11 20° W visible
29 Sep -3.8 18:59:44 10° WSW 19:03:03 80° S 19:06:24 10° E visible
29 Sep -3.6 20:36:27 10° W 20:39:28 65° WSW 20:39:28 65° WSW visible
30 Sep -3.8 19:47:56 10° W 19:51:15 82° S 19:52:44 30° ESE visible
30 Sep -1.0 21:24:43 10° W 21:25:38 16° W 21:25:38 16° W visible
01 Oct -3.8 18:59:23 10° W 19:02:43 86° S 19:06:01 10° E visible
01 Oct -3.0 20:36:07 10° W 20:38:54 44° SW 20:38:54 44° SW visible
